Home > Weather > Fort Liard > Past weeks

Flag for Canada Weather for the Past 2 Weeks in Fort Liard, Northwest Territories, Canada

Now
27 °F

Light freezing rain. Overcast.


Feels Like: 27 °F
Forecast: 2 / 11 °F
Wind: 2 mph from Northwest

Location: Fort Nelson

Current Time: Feb 8, 2016 at 6:55:18 PM

Latest Report: Feb 8, 2016 at 6:00 PM


Visibility: 10 mi

Pressure: 30.20 "Hg

Humidity: 86%

Dew point: 23 °F

Location of Fort LiardLocation

Historic Weather in Fort Liard — Graph

°F

Fort Liard Temperature Yesterday

Maximum temperature yesterday: 25 °F (at 4:00 PM)
Minimum temperature yesterday: 7 °F (at 6:00 AM)
Average temperature yesterday: 15 °F

High & Low Weather Summary for the Past Weeks

 TemperatureHumidityPressure
High36 °F (Jan 29, 3:00 PM)100% (Jan 27, 11:00 PM)30.35 "Hg (Jan 27, 11:00 PM)
Low-9 °F (Jan 25, 2:00 AM)60% (Jan 29, 2:00 PM)29.24 "Hg (Jan 28, 1:00 PM)
Average13 °F87%29.86 "Hg
* Reported Jan 24 5:00 PM — Feb 8 5:00 PM, Fort Liard, Weather by CustomWeather, © 2016

Note: Actual official high and low records may vary slightly from our data, if they occured in-between our weather recording intervals... More about our weather records

Advertising

Fort Liard Weather History for the Previous 24 Hours

 ConditionsComfort  
Time TempWeatherWind HumidityBarometerVisibility
5:00 PM
Mon, Feb 8
27 °FLight freezing rain. Overcast.2 mph86%30.20 "Hg10 mi
4:00 PM27 °FPartly sunny.3 mph86%30.19 "Hg15 mi
3:00 PM25 °FLight freezing rain. Overcast.5 mph93%30.20 "Hg15 mi
2:00 PM25 °FOvercast.2 mph86%30.21 "Hg15 mi
1:00 PM23 °FOvercast.2 mph86%30.22 "Hg15 mi
12:00 PM21 °FPartly sunny.2 mph93%30.24 "Hg15 mi
11:00 AM19 °FPartly sunny.No wind86%30.24 "Hg20 mi
10:00 AM18 °FPartly sunny.3 mph93%30.25 "Hg20 mi
9:00 AM18 °FPassing clouds.5 mph93%30.24 "Hg20 mi
8:00 AM18 °FPassing clouds.No wind86%30.26 "Hg15 mi
7:00 AM19 °FPartly cloudy.5 mph86%30.28 "Hg15 mi
6:00 AM18 °FPartly cloudy.2 mph86%30.27 "Hg15 mi
5:00 AM19 °FMostly cloudy.3 mph86%30.28 "Hg15 mi
4:00 AM16 °FMostly cloudy.3 mph93%30.27 "Hg15 mi
3:00 AM18 °FPassing clouds.2 mph86%30.27 "Hg15 mi
2:00 AM18 °FPassing clouds.2 mph93%30.26 "Hg15 mi
1:00 AM18 °FPassing clouds.6 mph93%30.27 "Hg15 mi
12:00 AM16 °FPassing clouds.3 mph93%30.26 "Hg15 mi
11:00 PM
Sun, Feb 7
16 °FPassing clouds.2 mph93%30.26 "Hg15 mi
10:00 PM18 °FPassing clouds.2 mph93%30.27 "Hg15 mi
9:00 PM18 °FPassing clouds.No wind100%30.27 "Hg15 mi
8:00 PM19 °FOvercast.2 mph93%30.27 "Hg15 mi
7:00 PM19 °FMostly cloudy.2 mph93%30.27 "Hg15 mi
6:00 PM21 °FMostly cloudy.3 mph93%30.26 "Hg15 mi
Weather by CustomWeather, © 2016

See weather overviewHow to use our weather pages